Cloud_Cover
0 0 0 2 1 4 0 0 0 0 0 0 1 0 1 1 14 52 100 100 100 100 100 100 100 100 100 100 100 100 100 100 100 100 100 96 78 5 0 0 0 1 19
5 5 57 13 3 5 0 0 0 0 0 0 0 0 0 0 0 51 100 100 100 100 100 100 100 100 100 100 100 100 100 100 100 100 100 100 78 5 2 0 0 0 13
100 36 8 40 28 9 3 1 0 2 8 2 0 0 0 1 58 100 100 100 100 100 100 100 100 100 100 100 100 93 92 100 100 100 78 86 7 64 4 0 1 0 0
66 91 78 40 90 50 44 1 5 3 0 99 1 0 0 6 100 100 100 100 100 100 100 100 100 100 100 100 100 100 100 93 83 73 84 100 63 48 2 0 0 0 6
96 100 98 100 87 95 99 5 26 0 0 4 40 1 0 7 100 100 100 100 100 100 100 100 100 100 100 100 100 100 100 100 52 88 100 56 100 100 2 0 0 1 98
100 100 100 100 100 100 100 83 5 4 0 0 100 100 66 82 100 100 100 100 100 100 100 100 100 100 100 100 100 100 100 100 100 99 100 40 70 83 100 5 0 0 0
100 100 100 96 99 97 100 69 5 0 2 25 94 100 100 100 100 100 100 100 100 100 100 100 100 100 100 100 100 100 100 100 100 96 92 98 28 3 16 19 0 0 0
100 71 94 31 12 94 99 94 5 0 0 98 100 100 100 100 100 100 100 100 100 100 100 100 100 100 100 100 100 100 100 100 100 100 91 94 2 0 0 0 0 0 0
100 100 100 46 48 56 100 100 5 20 100 100 100 100 100 100 100 100 100 100 100 100 100 100 100 100 100 100 100 100 100 100 100 100 99 100 100 100 100 32 22 13 3
100 100 100 96 100 90 100 100 26 68 100 100 100 100 100 97 100 100 100 100 100 100 100 100 100 100 100 100 100 100 100 100 100 100 95 45 64 40 100 96 23 99 99
100 100 100 100 100 98 71 71 88 88 100 100 100 100 100 100 100 100 100 100 100 100 100 100 100 100 100 100 100 100 93 82 97 100 6 0 0 0 18 100 100 100 98
100 100 100 100 100 100 99 68 23 93 100 100 100 100 100 100 100 100 100 100 100 97 100 100 100 100 100 100 77 47 100 100 100 39 1 0 0 0 2 36 69 27 4
100 100 100 100 100 100 100 39 69 99 100 100 100 100 100 100 100 98 96 25 99 100 95 54 100 100 100 100 97 100 100 42 0 2 0 0 0 0 0 23 16 0 3
100 100 100 100 100 100 100 100 75 100 37 100 100 100 100 100 100 100 100 100 93 64 87 100 100 100 95 57 24 72 1 0 0 0 0 0 0 0 5 20 22 4 0
100 100 100 100 100 100 100 100 35 100 83 100 100 100 100 100 100 100 100 93 87 100 99 100 62 5 5 2 2 0 0 0 0 0 0 0 0 0 0 11 0 2 2
100 100 100 100 100 100 100 100 9 88 94 100 100 100 100 100 100 100 100 98 92 72 100 100 24 1 0 0 0 0 0 0 0 0 0 0 0 0 2 22 0 4 6
100 100 100 100 100 100 100 100 94 78 25 30 100 100 100 100 100 100 100 100 100 100 9 5 5 4 0 3 3 0 0 0 0 0 5 1 0 0 66 31 7 100 100
100 100 100 100 100 100 100 92 47 48 38 53 28 18 96 84 65 100 100 100 100 100 100 44 49 5 4 3 5 4 0 0 0 0 0 0 0 0 0 0 100 100 100
100 100 100 100 100 100 100 100 97 79 67 17 84 91 97 89 43 71 99 100 100 100 100 73 61 45 0 5 5 4 3 0 0 0 0 0 0 0 2 97 100 100 100
100 100 100 80 100 100 100 100 100 74 99 95 100 100 100 94 91 73 100 100 100 83 100 43 50 8 0 66 0 5 3 5 0 0 0 0 0 0 98 100 100 100 100
100 100 100 100 100 98 50 98 100 92 30 98 100 64 100 50 98 98 98 100 100 100 89 100 100 12 3 6 97 5 5 0 0 0 0 0 0 90 100 100 100 100 100
100 100 100 100 100 78 100 100 73 82 80 27 62 98 100 100 34 53 97 90 64 100 100 50 20 34 4 8 93 14 4 5 2 0 0 0 15 100 100 100 100 100 100
100 100 100 100 100 100 100 100 100 100 100 100 100 61 79 100 74 5 88 59 100 99 62 15 76 32 100 99 99 80 1 4 0 0 0 38 100 100 100 100 100 100 100
100 100 100 100 100 100 100 100 100 100 100 81 68 56 75 99 100 93 28 97 38 42 22 57 100 100 100 37 56 100 28 0 2 5 1 100 100 100 100 100 100 100 100
100 100 100 100 100 100 100 100 100 100 100 100 100 19 43 99 94 66 34 31 97 100 100 100 100 100 100 100 60 5 69 100 24 63 44 100 100 100 100 100 100 100 100
100 100 100 100 100 100 100 100 100 100 100 100 100 75 67 17 25 21 5 5 4 38 64 72 82 92 77 86 10 1 14 100 82 100 100 100 100 100 100 100 100 100 100